Grand Forks, ND

5:05 PM CDT on May 24, 2018 (GMT -0500)
Grand Forks International

Weather History for KGFK - April, 2012

Change the Weather History Date:

Thursday, April 5, 2012

  Actual Average Record
Temperature  
Mean Temperature 48 °F 36 °F  
Max Temperature 65 °F 47 °F 80 °F (1991)
Min Temperature 30 °F 26 °F 0 °F (1979)
Degree Days  
Heating Degree Days 17 29  
Month to date heating degree days 79 149  
Since 1 July heating degree days 6745 8534  
Cooling Degree Days 0 0  
Month to date cooling degree days 0 0  
Year to date cooling degree days 0 0  
Moisture  
Dew Point 30 °F    
Average Humidity 50    
Maximum Humidity 78    
Minimum Humidity 22    
Precipitation  
Precipitation 0.00 in 0.03 in 0.51 in (1997)
Month to date precipitation 0.34 0.14  
Year to date precipitation 3.02 2.17  
Snow  
Snow 0.00 in 0.10 in 2.00 in (1997)
Month to date snowfall T 0.6  
Since 1 July snowfall 22.8 45.0  
Snow Depth 0.00 in    
Sea Level Pressure  
Sea Level Pressure 30.05 in    
Wind  
Wind Speed 11 mph (SE)    
Max Wind Speed 20 mph    
Max Gust Speed 29 mph    
Visibility 10 miles    
Events      
T = Trace of Precipitation, MM = Missing Value Source: NWS Daily Summary

Daily Weather History Graph

Daily Weather History Graph

Search for Another Location

Airport or City:

Astronomy

Apr. 05, 2012 Rise Set
Actual Time 6:57 AM CDT 8:05 PM CDT
Civil Twilight 6:26 AM CDT 8:37 PM CDT
Nautical Twilight 5:48 AM CDT 9:15 PM CDT
Astronomical Twilight 5:07 AM CDT 9:56 PM CDT
Moon 7:12 PM CDT (4/5) 5:58 AM CDT (4/5)
Length of Visible Light 14h 10m
Length of Day
13h 07m
Waxing Gibbous, 98% of the Moon is Illuminated
Apr 5
Waxing Gibbous
Apr 6
Full
Apr 13
Last Quarter
Apr 21
New
Apr 29
First Quarter

Hourly Weather History & Observations

Time (CDT) Temp. Windchill Dew Point Humidity Pressure Visibility Wind Dir Wind Speed Gust Speed Precip Events Conditions
12:53 AM 41.0 °F 36.4 °F 28.0 °F 60% 30.00 in 10.0 mi East 6.9 mph - N/A   Clear
1:53 AM 42.1 °F 37.7 °F 28.0 °F 58% 30.00 in 10.0 mi ESE 6.9 mph - N/A   Clear
2:53 AM 41.0 °F 35.2 °F 27.0 °F 57% 30.00 in 10.0 mi ESE 9.2 mph - N/A   Clear
3:53 AM 37.9 °F 33.5 °F 27.0 °F 65% 30.01 in 10.0 mi SE 5.8 mph - N/A   Clear
4:53 AM 37.0 °F 31.0 °F 26.1 °F 65% 30.02 in 10.0 mi SE 8.1 mph - N/A   Clear
5:53 AM 37.0 °F 29.8 °F 26.1 °F 65% 30.04 in 10.0 mi SE 10.4 mph - N/A   Clear
6:53 AM 30.9 °F 27.5 °F 24.1 °F 76% 30.06 in 10.0 mi SSE 3.5 mph - N/A   Partly Cloudy
7:53 AM 37.0 °F - 27.0 °F 67% 30.09 in 10.0 mi Calm Calm - N/A   Partly Cloudy
8:53 AM 42.1 °F 36.6 °F 28.0 °F 58% 30.10 in 10.0 mi SSE 9.2 mph - N/A   Scattered Clouds
9:53 AM 45.0 °F 38.9 °F 28.9 °F 53% 30.10 in 10.0 mi SSE 12.7 mph - N/A   Scattered Clouds
10:53 AM 50.0 °F - 30.9 °F 48% 30.09 in 10.0 mi SSE 13.8 mph - N/A   Scattered Clouds
11:53 AM 54.0 °F - 32.0 °F 43% 30.09 in 10.0 mi SSE 11.5 mph - N/A   Scattered Clouds
12:53 PM 57.0 °F - 32.0 °F 39% 30.08 in 10.0 mi SE 11.5 mph - N/A   Mostly Cloudy
1:53 PM 60.1 °F - 30.9 °F 33% 30.06 in 10.0 mi SSE 12.7 mph - N/A   Mostly Cloudy
2:53 PM 63.0 °F - 28.0 °F 27% 30.05 in 10.0 mi ESE 16.1 mph 24.2 mph N/A   Mostly Cloudy
3:53 PM 64.0 °F - 25.0 °F 23% 30.04 in 10.0 mi SE 16.1 mph 23.0 mph N/A   Mostly Cloudy
4:53 PM 64.0 °F - 28.9 °F 27% 30.03 in 10.0 mi SSE 13.8 mph - N/A   Mostly Cloudy
5:53 PM 64.0 °F - 30.0 °F 28% 30.03 in 10.0 mi SE 15.0 mph - N/A   Scattered Clouds
6:53 PM 62.1 °F - 32.0 °F 32% 30.04 in 10.0 mi SE 15.0 mph - N/A   Partly Cloudy
7:53 PM 57.0 °F - 35.1 °F 44% 30.04 in 10.0 mi SE 11.5 mph - N/A   Partly Cloudy
8:53 PM 52.0 °F - 34.0 °F 50% 30.04 in 10.0 mi SE 9.2 mph - N/A   Partly Cloudy
9:53 PM 48.9 °F - 34.0 °F 56% 30.06 in 10.0 mi SE 9.2 mph - N/A   Clear
10:53 PM 48.0 °F - 34.0 °F 58% 30.07 in 10.0 mi SSE 9.2 mph - N/A   Clear
11:53 PM 46.9 °F - 33.1 °F 59% 30.08 in 10.0 mi SE 10.4 mph - N/A   Partly Cloudy